Location: Camp Creek
(33.9000°N, 111.8167°W)
Time: 19:00:23
(UTC-07:00)

Cosmos 1656 - Visible Passes

Search period start: 16 October 2017 00:00
Search period end: 26 October 2017 00:00
Orbit: 797 x 850 km, 71.1° (Epoch: 16 October)

Date Brightness Start Highest point End Pass type
(mag) Time Alt. Az. Time Alt. Az. Time Alt. Az.
16 Oct 6.0 05:52:53 10° SSE 05:57:45 30° ESE 06:02:39 10° NE visible
16 Oct 7.0 18:17:14 10° WNW 18:20:08 15° W 18:23:01 10° SW visible
17 Oct 6.2 05:32:49 10° SSE 05:37:23 25° ESE 05:41:58 10° NE visible
18 Oct 6.4 05:12:52 10° SSE 05:17:02 21° E 05:21:13 10° NE visible
19 Oct 6.5 04:53:00 10° SE 04:56:41 18° E 05:00:22 10° ENE visible
20 Oct 6.7 04:33:20 10° SE 04:36:21 15° E 04:39:23 10° ENE visible
21 Oct 6.7 04:13:57 10° ESE 04:16:01 12° E 04:18:05 10° ENE visible
21 Oct 3.7 05:53:16 10° SSW 05:58:55 72° WNW 06:04:38 10° NNE visible
22 Oct 3.7 05:32:47 10° SSW 05:38:29 85° WNW 05:44:13 10° NNE visible
23 Oct 3.8 05:12:22 10° SSW 05:18:04 82° ESE 05:23:46 10° NNE visible
24 Oct 4.0 04:52:00 10° S 04:57:38 69° ESE 05:03:18 10° NNE visible
25 Oct 4.2 04:31:53 11° S 04:37:14 58° ESE 04:42:49 10° NNE visible
25 Oct 5.1 06:17:28 10° W 06:21:14 18° WNW 06:25:00 10° NNW visible
